Overview Statistics Trail Chart Weather Telemetry Raw packets
 

This is the latest recevied weather packets stored in our database for station/object WC4PEM-4. If no packets are shown the sender has not sent any weather packets the latest 10 day(s).

<< 107 108 109 110 111 112 113 >>
Time Temp. Humidity Pressure Rain* Wind** Luminosity Snow
1788036686 25.56° C 84% 1017.3 hPa 0 mm - - -
1788036477 25.56° C 83% 1017.3 hPa 0 mm - - -
1788036386 25.56° C 83% 1017.3 hPa 0 mm - - -
1788036086 25.56° C 83% 1016.8 hPa 0 mm - - -
1788035786 26.11° C 82% 1016.8 hPa 0 mm - - -
1788035486 26.67° C 77% 1016.5 hPa 0 mm - - -
1788035186 27.22° C 72% 1016.5 hPa 0 mm - - -
1788034886 27.78° C 66% 1016.7 hPa 0 mm - - -
1788034586 28.33° C 66% 1016.7 hPa 0 mm - - -
1788034286 28.89° C 66% 1016.6 hPa 0 mm - - -
1788033986 29.44° C 65% 1016.8 hPa 0 mm - - -
1788033949 30.56° C 67% 1017.2 hPa 0 mm - - -
1788033686 30.56° C 67% 1017.2 hPa 0 mm - - -
1788033386 31.11° C 65% 1017.1 hPa 0 mm - - -
1788033086 31.67° C 63% 1016.7 hPa 0 mm - - -
1788032786 32.78° C 64% 1016.7 hPa 0 mm - - -
1788032497 33.33° C 62% 1016.8 hPa 0 mm - - -
1788032186 34.44° C 59% 1016.6 hPa 0 mm - - -
1788031886 34.44° C 50% 1016.3 hPa 0 mm - - -
1788031776 35° C 49% 1016.4 hPa 0 mm - - -
1788031586 35° C 49% 1016.4 hPa 0 mm - - -
1788031286 35° C 53% 1016.5 hPa 0 mm - - -
1788030986 34.44° C 53% 1016.4 hPa 0 mm - - -
1788030903 34.44° C 54% 1016.4 hPa 0 mm - - -
1788030686 34.44° C 54% 1016.4 hPa 0 mm - - -

* Rain latest hour (hover to see other rain measurements)
** Current wind speed in m/s (hover to see current wind gust speed)